This is the latest recevied weather packets stored in our database for station/object AC1IX. If no packets are shown the sender has not sent any weather packets the latest 10 day(s).
| Time | Temp. | Humidity | Pressure | Rain* | Wind** | Luminosity | Snow |
|---|---|---|---|---|---|---|---|
| 1777594816 | 8.89° C | 86% | 1009.3 hPa | 0 mm | - | 0 W/m² | - |
| 1777594512 | 8.89° C | 85% | 1009.3 hPa | 0 mm | - | 0 W/m² | - |
| 1777594209 | 8.89° C | 85% | 1009.1 hPa | 0 mm | - | 0 W/m² | - |
| 1777593904 | 8.89° C | 85% | 1009 hPa | 0 mm | - | 0 W/m² | - |
| 1777593601 | 8.89° C | 85% | 1009.1 hPa | 0 mm | - | 0 W/m² | - |
| 1777593296 | 8.89° C | 84% | 1008.9 hPa | 0 mm | - | 0 W/m² | - |
| 1777592991 | 8.89° C | 87% | 1008.8 hPa | 0 mm | - | 0 W/m² | - |
| 1777592686 | 8.89° C | 89% | 1008.9 hPa | 0 mm | - | 0 W/m² | - |
| 1777592382 | 8.89° C | 91% | 1008.7 hPa | 0 mm | - | 0 W/m² | - |
| 1777592077 | 8.89° C | 93% | 1008.9 hPa | 0 mm | - | 0 W/m² | - |
| 1777591775 | 8.89° C | 92% | 1008.7 hPa | 0 mm | - | 0 W/m² | - |
| 1777591470 | 8.89° C | 90% | 1008.8 hPa | 0 mm | - | 0 W/m² | - |
| 1777591167 | 9.44° C | 89% | 1008.7 hPa | 0 mm | - | 1 W/m² | - |
| 1777590861 | 8.89° C | 87% | 1008.6 hPa | 0 mm | - | 3 W/m² | - |
| 1777590558 | 8.89° C | 92% | 1008.5 hPa | 0 mm | - | 3 W/m² | - |
| 1777590254 | 9.44° C | 90% | 1008.3 hPa | 0 mm | - | 3 W/m² | - |
| 1777589952 | 9.44° C | 89% | 1008.4 hPa | 0 mm | - | 5 W/m² | - |
| 1777589648 | 9.44° C | 88% | 1008.3 hPa | 0 mm | - | 6 W/m² | - |
| 1777589345 | 9.44° C | 89% | 1008.4 hPa | 0 mm | - | 6 W/m² | - |
| 1777589042 | 9.44° C | 88% | 1008.4 hPa | 0 mm | - | 6 W/m² | - |
| 1777588738 | 9.44° C | 87% | 1008.3 hPa | 0 mm | - | 7 W/m² | - |
| 1777588434 | 9.44° C | 86% | 1008.2 hPa | 0 mm | - | 6 W/m² | - |
| 1777588129 | 10° C | 85% | 1008.2 hPa | 0 mm | - | 8 W/m² | - |
| 1777587826 | 10° C | 85% | 1007.9 hPa | 0 mm | - | 10 W/m² | - |
| 1777587525 | 9.44° C | 88% | 1008.1 hPa | 0 mm | - | 15 W/m² | - |
* Rain latest hour (hover to see other rain measurements)
** Current wind speed in m/s (hover to see current wind gust speed)